AUA691U LOWW-LROP

Flight info

Callsign AUA691U
Flight time 1h 13m
Altitude 37000
Route ADAMA DCT VEDER DCT ALAMU DCT EPARI DCT TEGRI DCT NEKUL DCT LAMIT DCT TOSVI
Aircraft E190/M-SDE3GILORVW/S

Departure

Time 2026-05-04 15:52
Airport Vienna International Airport (LOWW)

Arrival

Time 2026-05-04 17:06
Airport Bucharest Henri Coandă International Airport (LROP)
Time Latitude Longitude Altitude Speed Heading
2026-05-04 15:23 48.11745 16.57178 599 ft 0 kts 205°
2026-05-04 15:44 48.11738 16.57173 599 ft 2 kts 204°
2026-05-04 15:44 48.11713 16.57157 599 ft 5 kts 200°
2026-05-04 15:44 48.11673 16.57170 600 ft 7 kts 131°
2026-05-04 15:44 48.11644 16.57253 600 ft 10 kts 117°
2026-05-04 15:45 48.11606 16.57364 601 ft 13 kts 113°
2026-05-04 15:45 48.11574 16.57509 602 ft 15 kts 72°
2026-05-04 15:45 48.11678 16.57522 601 ft 19 kts 343°
2026-05-04 15:45 48.11823 16.57463 599 ft 23 kts 346°
2026-05-04 15:46 48.11977 16.57404 597 ft 17 kts
2026-05-04 15:46 48.12007 16.57528 598 ft 6 kts 104°
2026-05-04 15:46 48.11998 16.57578 598 ft 0 kts 106°
2026-05-04 15:50 48.11996 16.57590 598 ft 3 kts 106°
2026-05-04 15:50 48.11987 16.57634 598 ft 5 kts 107°
2026-05-04 15:51 48.11975 16.57696 598 ft 7 kts 107°
2026-05-04 15:51 48.11958 16.57778 599 ft 9 kts 109°
2026-05-04 15:51 48.11912 16.57852 599 ft 11 kts 164°
2026-05-04 15:51 48.11700 16.57940 601 ft 65 kts 165°
2026-05-04 15:52 48.11046 16.58216 606 ft 128 kts 163°
2026-05-04 15:52 48.10074 16.58622 938 ft 149 kts 165°
2026-05-04 15:52 48.09089 16.59111 1578 ft 155 kts 158°
2026-05-04 15:52 48.08069 16.59671 2249 ft 165 kts 163°
2026-05-04 15:53 48.07061 16.60107 2605 ft 170 kts 165°
2026-05-04 15:53 48.05843 16.60550 3122 ft 193 kts 167°
2026-05-04 15:53 48.04523 16.61169 3542 ft 206 kts 145°
2026-05-04 15:53 48.03744 16.62990 4135 ft 228 kts 103°
2026-05-04 15:54 48.03749 16.65477 4818 ft 250 kts 90°
2026-05-04 15:54 48.03835 16.68150 5416 ft 271 kts 91°
2026-05-04 15:54 48.03911 16.71049 6168 ft 284 kts 91°
2026-05-04 15:54 48.03978 16.74007 7096 ft 289 kts 91°
2026-05-04 15:55 48.04040 16.76990 8094 ft 291 kts 91°
2026-05-04 15:55 48.04099 16.79992 9084 ft 293 kts 91°
2026-05-04 15:55 48.04176 16.82998 9880 ft 280 kts 91°
2026-05-04 15:55 48.03902 16.85874 10201 ft 291 kts 106°
2026-05-04 15:56 48.03429 16.88853 10602 ft 302 kts 106°
2026-05-04 15:56 48.02942 16.91967 10980 ft 309 kts 106°
2026-05-04 15:56 48.02457 16.95080 11331 ft 314 kts 106°
2026-05-04 15:56 48.01955 16.98303 11717 ft 320 kts 106°
2026-05-04 15:57 48.01446 17.01569 12120 ft 327 kts 106°
2026-05-04 15:57 48.01022 17.04955 12511 ft 332 kts 99°
2026-05-04 15:57 48.00764 17.08351 12946 ft 334 kts 99°
2026-05-04 15:57 48.00503 17.11796 13350 ft 337 kts 99°
2026-05-04 15:58 48.00233 17.15325 13753 ft 339 kts 99°
2026-05-04 15:58 47.99963 17.18841 14178 ft 340 kts 98°
2026-05-04 15:58 47.99696 17.22310 14571 ft 343 kts 98°
2026-05-04 15:58 47.99496 17.24893 14861 ft 344 kts 98°
2026-05-04 15:59 47.99249 17.28084 15267 ft 346 kts 98°
2026-05-04 15:59 47.98981 17.31523 15684 ft 349 kts 98°
2026-05-04 15:59 47.98560 17.35081 16097 ft 348 kts 108°
2026-05-04 15:59 47.97826 17.38491 16549 ft 352 kts 109°
2026-05-04 16:00 47.97063 17.41981 16990 ft 354 kts 109°
2026-05-04 16:00 47.96329 17.45335 17413 ft 356 kts 109°
2026-05-04 16:00 47.95560 17.48842 17856 ft 359 kts 109°
2026-05-04 16:00 47.94788 17.52360 18316 ft 362 kts 109°
2026-05-04 16:01 47.93994 17.55969 18774 ft 364 kts 109°
2026-05-04 16:01 47.93202 17.59565 19232 ft 366 kts 109°
2026-05-04 16:01 47.92399 17.63203 19696 ft 368 kts 109°
2026-05-04 16:01 47.91587 17.66876 20166 ft 371 kts 109°
2026-05-04 16:02 47.90778 17.70529 20631 ft 374 kts 109°
2026-05-04 16:02 47.90007 17.74006 21077 ft 377 kts 109°
2026-05-04 16:02 47.88340 17.81499 22041 ft 382 kts 109°
2026-05-04 16:03 47.87491 17.85304 22535 ft 384 kts 109°
2026-05-04 16:03 47.86635 17.89135 23039 ft 388 kts 109°
2026-05-04 16:03 47.85784 17.92938 23535 ft 390 kts 109°
2026-05-04 16:03 47.84922 17.96780 24041 ft 394 kts 109°
2026-05-04 16:04 47.83836 18.00627 24571 ft 397 kts 115°
2026-05-04 16:04 47.81490 18.08149 25611 ft 404 kts 115°
2026-05-04 16:04 47.80308 18.11930 26123 ft 407 kts 115°
2026-05-04 16:05 47.79242 18.15335 26596 ft 411 kts 115°
2026-05-04 16:05 47.78177 18.18736 27056 ft 413 kts 114°
2026-05-04 16:05 47.75702 18.26615 28138 ft 420 kts 114°
2026-05-04 16:06 47.74471 18.30603 28684 ft 425 kts 111°
2026-05-04 16:06 47.72987 18.42186 30180 ft 430 kts 94°
2026-05-04 16:07 47.72552 18.48033 30935 ft 434 kts 94°
2026-05-04 16:07 47.72250 18.51993 31444 ft 436 kts 94°
2026-05-04 16:08 47.72112 18.53792 31678 ft 436 kts 94°
2026-05-04 16:08 47.71065 18.67291 33410 ft 440 kts 95°
2026-05-04 16:09 47.70355 18.76322 34564 ft 441 kts 95°
2026-05-04 16:09 47.69639 18.85340 35585 ft 440 kts 95°
2026-05-04 16:10 47.68574 18.94200 36583 ft 440 kts 107°
2026-05-04 16:11 47.63697 19.05905 37087 ft 464 kts 135°
2026-05-04 16:11 47.61360 19.09233 37083 ft 471 kts 134°
2026-05-04 16:12 47.47723 19.30139 37066 ft 471 kts 133°
2026-05-04 16:13 47.38654 19.44040 37071 ft 471 kts 132°
2026-05-04 16:14 47.29558 19.57908 37062 ft 471 kts 132°
2026-05-04 16:16 47.18129 19.75230 37067 ft 472 kts 133°
2026-05-04 16:17 47.06682 19.92465 37073 ft 472 kts 133°
2026-05-04 16:18 46.97504 20.06204 37078 ft 473 kts 133°
2026-05-04 16:19 46.85998 20.23325 37072 ft 473 kts 133°
2026-05-04 16:20 46.74483 20.40350 37061 ft 473 kts 132°
2026-05-04 16:22 46.62978 20.57250 37071 ft 472 kts 132°
2026-05-04 16:23 46.49084 20.77515 37070 ft 472 kts 133°
2026-05-04 16:25 46.35172 20.97652 37084 ft 472 kts 133°
2026-05-04 16:26 46.20322 21.22565 37085 ft 469 kts 122°
2026-05-04 16:28 46.10881 21.41682 37067 ft 467 kts 122°
2026-05-04 16:29 45.97661 21.68230 37062 ft 467 kts 123°
2026-05-04 16:31 45.89818 21.88312 37062 ft 462 kts 111°
2026-05-04 16:32 45.81611 22.13435 37045 ft 462 kts 112°
2026-05-04 16:33 45.76063 22.30123 37066 ft 462 kts 112°
2026-05-04 16:34 45.71921 22.42515 37079 ft 461 kts 112°
2026-05-04 16:35 45.63612 22.67199 37080 ft 460 kts 113°
2026-05-04 16:36 45.59405 22.79608 37072 ft 460 kts 113°
2026-05-04 16:37 45.55236 22.91848 37063 ft 460 kts 113°
2026-05-04 16:38 45.49650 23.08151 37071 ft 459 kts 113°
2026-05-04 16:39 45.42639 23.28485 37079 ft 459 kts 113°
2026-05-04 16:40 45.37141 23.44327 36120 ft 451 kts 113°
2026-05-04 16:41 45.34321 23.52512 34412 ft 468 kts 110°
2026-05-04 16:41 45.30925 23.64904 31025 ft 427 kts 115°
2026-05-04 16:42 45.27137 23.76233 29260 ft 422 kts 116°
2026-05-04 16:43 45.24617 23.83673 27787 ft 416 kts 116°
2026-05-04 16:43 45.22136 23.90978 26306 ft 407 kts 115°
2026-05-04 16:43 45.20927 23.94530 25579 ft 403 kts 115°
2026-05-04 16:44 45.16137 24.08560 22653 ft 390 kts 114°
2026-05-04 16:45 45.13808 24.15351 21252 ft 380 kts 113°
2026-05-04 16:46 45.10425 24.25188 19141 ft 364 kts 111°
2026-05-04 16:46 45.08264 24.31452 18086 ft 344 kts 111°
2026-05-04 16:47 45.06222 24.37362 17134 ft 329 kts 110°
2026-05-04 16:47 45.04219 24.43146 16219 ft 327 kts 111°
2026-05-04 16:48 45.01249 24.51697 15049 ft 322 kts 110°
2026-05-04 16:48 45.00262 24.54532 14654 ft 320 kts 110°
2026-05-04 16:49 44.98312 24.60124 13880 ft 316 kts 110°
2026-05-04 16:49 44.96388 24.65632 13110 ft 314 kts 111°
2026-05-04 16:50 44.94447 24.71179 12352 ft 315 kts 111°
2026-05-04 16:50 44.92506 24.76710 11584 ft 312 kts 111°
2026-05-04 16:51 44.90618 24.82078 11051 ft 300 kts 111°
2026-05-04 16:51 44.89696 24.84699 11039 ft 300 kts 111°
2026-05-04 16:51 44.87824 24.90009 11035 ft 303 kts 111°
2026-05-04 16:52 44.85948 24.95320 11032 ft 303 kts 111°
2026-05-04 16:52 44.85010 24.97973 10904 ft 304 kts 111°
2026-05-04 16:53 44.83134 25.03265 10300 ft 299 kts 111°
2026-05-04 16:53 44.80421 25.10906 9209 ft 287 kts 111°
2026-05-04 16:54 44.79528 25.13415 8851 ft 286 kts 111°
2026-05-04 16:55 44.75997 25.23318 7431 ft 281 kts 112°
2026-05-04 16:55 44.74263 25.28165 7032 ft 276 kts 112°
2026-05-04 16:56 44.72534 25.32993 7025 ft 279 kts 112°
2026-05-04 16:56 44.69915 25.40289 6448 ft 277 kts 113°
2026-05-04 16:57 44.69035 25.42733 6214 ft 276 kts 113°
2026-05-04 16:57 44.67320 25.47496 5749 ft 273 kts 113°
2026-05-04 16:58 44.64766 25.54573 5048 ft 269 kts 113°
2026-05-04 16:58 44.63923 25.56903 4831 ft 268 kts 113°
2026-05-04 16:59 44.62251 25.61524 4405 ft 265 kts 114°
2026-05-04 17:00 44.58898 25.70763 3553 ft 263 kts 115°
2026-05-04 17:00 44.56427 25.77552 2928 ft 260 kts 115°
2026-05-04 17:01 44.54815 25.82062 2521 ft 255 kts 107°
2026-05-04 17:01 44.54841 25.86612 2394 ft 216 kts 82°
2026-05-04 17:02 44.55133 25.90423 2287 ft 182 kts 82°
2026-05-04 17:02 44.55400 25.93853 2024 ft 167 kts 82°
2026-05-04 17:03 44.55518 25.95378 1878 ft 151 kts 82°
2026-05-04 17:03 44.55631 25.96825 1689 ft 146 kts 83°
2026-05-04 17:03 44.55831 25.99415 1360 ft 130 kts 83°
2026-05-04 17:04 44.56031 26.01964 1079 ft 132 kts 83°
2026-05-04 17:04 44.56222 26.04542 767 ft 134 kts 83°
2026-05-04 17:05 44.56431 26.07149 420 ft 136 kts 85°
2026-05-04 17:05 44.56597 26.09426 318 ft 79 kts 84°
2026-05-04 17:06 44.56674 26.10443 318 ft 36 kts 84°
2026-05-04 17:06 44.56704 26.10718 318 ft 17 kts 56°
2026-05-04 17:07 44.56938 26.10736 318 ft 18 kts 354°
2026-05-04 17:07 44.57011 26.10686 318 ft 17 kts 311°
2026-05-04 17:07 44.57068 26.10475 318 ft 18 kts 262°
2026-05-04 17:07 44.57053 26.10300 318 ft 18 kts 265°
2026-05-04 17:08 44.57040 26.10119 318 ft 18 kts 262°
2026-05-04 17:08 44.56982 26.09914 318 ft 8 kts 175°
2026-05-04 17:08 44.56947 26.09919 318 ft 0 kts 174°
2026-05-04 17:09 44.56943 26.09920 318 ft 0 kts 174°